Flag for Germany Weather past 2 weeks in Uelzen, Lower Saxony, Germany

Now
50 °F

Drizzle. Fog.


Feels Like: 44 °F
Forecast: 42 / 49 °F
Wind: 17 mph from West

Location: Fassberg

Current Time: Dec 23, 2014 at 2:51:05 AM

Latest Report: Dec 23, 2014 at 2:20 AM


Visibility: 2 mi

Pressure: 29.83 "Hg

Humidity: 94%

Dew point: 48 °F

Location of UelzenLocation

Historic Weather in Uelzen — Graph

°F

Uelzen temperature yesterday

Maximum temperature yesterday: 52 °F (at 11:20 PM)
Minimum temperature yesterday: 46 °F (at 12:20 AM)
Average temperature yesterday: 49 °F

Past Weeks' High & Low Weather Summary

 TemperatureHumidityPressure
High54 °F (Dec 18, 8:20 PM)100% (Dec 14, 12:20 AM)30.33 "Hg (Dec 14, 12:20 AM)
Low32 °F (Dec 14, 11:20 PM)70% (Dec 10, 4:20 AM)29.27 "Hg (Dec 12, 2:20 PM)
Average41 °F88%29.83 "Hg
* Reported Dec 8 1:20 AM — Dec 23 1:20 AM, Uelzen, Weather by CustomWeather, © 2014

Note: Actual official high and low records may vary slightly from our data, if they occured in-between our weather recording intervals... More about our weather records

Advertising

Uelzen weather history for previous 24 hours

 ConditionsComfort  
Time TempWeatherWind HumidityBarometerVisibility
1:20 AM
Dec 23
50 °FLight rain. Fog.18 mph94%29.83 "Hg2 mi
12:20 AM50 °FLight rain. Fog.18 mph94%29.83 "Hg3 mi
11:20 PM
Dec 22
52 °FLight rain. Fog.21 mph88%29.83 "Hg2 mi
10:20 PM50 °FRain. Fog.18 mph94%29.83 "Hg2 mi
9:20 PM50 °FRain. Fog.16 mph94%29.83 "Hg1 mi
8:20 PM50 °FDrizzle. Fog.18 mph94%29.83 "Hg2 mi
7:20 PM50 °FDrizzle. Fog.16 mph94%29.83 "Hg1 mi
6:20 PM50 °FDrizzle. Fog.16 mph94%29.83 "Hg2 mi
5:20 PM50 °FDrizzle. Fog.20 mph94%29.80 "Hg1 mi
4:20 PM50 °FDrizzle. Fog.20 mph94%29.80 "Hg2 mi
3:20 PM50 °FDrizzle. Fog.23 mph94%29.77 "Hg2 mi
2:20 PM50 °FDrizzle. Fog.24 mph88%29.77 "Hg2 mi
1:20 PM50 °FDrizzle. Fog.24 mph94%29.80 "Hg2 mi
12:20 PM50 °FDrizzle. Fog.25 mph94%29.80 "Hg2 mi
11:20 AM50 °FPartly sunny.26 mph88%29.77 "HgN/A
11:03 AM50 °FPartly sunny.26 mph88%29.77 "HgN/A
10:20 AM48 °FDrizzle. Fog.25 mph94%29.80 "Hg2 mi
9:46 AM48 °FDrizzle. Fog.25 mph94%29.80 "Hg3 mi
9:20 AM48 °FPartly sunny.26 mph94%29.80 "Hg5 mi
9:04 AM48 °FPartly sunny.24 mph94%29.80 "Hg4 mi
8:20 AM48 °FDrizzle. Fog.26 mph94%29.83 "Hg2 mi
7:20 AM48 °FDrizzle. Fog.24 mph94%29.83 "Hg2 mi
6:20 AM48 °FDrizzle. Fog.24 mph94%29.83 "Hg1 mi
5:20 AM48 °FDrizzle. Fog.24 mph87%29.83 "Hg2 mi
4:20 AM48 °FLight rain. Fog.25 mph87%29.86 "Hg2 mi
3:20 AM46 °FDrizzle. Fog.24 mph93%29.89 "Hg2 mi
2:45 AM46 °FDrizzle. Fog.25 mph93%29.89 "Hg2 mi
2:20 AM48 °FLight rain. Fog.24 mph87%29.89 "Hg3 mi
Weather by CustomWeather, © 2014

See weather overviewHow to use our weather pages